Find Starlink 5491

NORAD ID: 55332 Int'l Des: 2023-013 Owner: SPXS Country: US Constellation: starlink operational
LEOCIRCULAR

現在のビュー

3D地球を読み込み中...

About Starlink 5491

Starlink 5491 (NORAD 55332) is a starlink constellation satellite (v1.5) launched Jan 26, 2023 by SPXS of US. It operates in LEO, CIRCULAR orbit with a mass of 305.00 kg.

Starlink 5491について

説明を読み込み中...

次回通過

Passes for default location (London). Set your location on the main map for personalized predictions.

高度履歴

Loading altitude history...

軌道要素

1 55332U 23013B 26169.47641374 .00000529 00000-0 28753-4 0 9992
2 55332 43.0078 79.8167 0001947 257.8263 102.2371 15.27579930187251
Epoch: Jun 18, 2026 • Age: 13 hours

現在のステータス

高度 487.5 km
速度 7.63 km/s
衛星直下点 42.96°N, 99.62°W
打ち上げ日 Jan 26, 2023
運用期間 3.3 years
タイプ internet

技術仕様

分類 Payload
質量 305.00 kg
乾燥質量 290.00 kg
総質量 305.00 kg
長さ 0.20 m
直径 2.80 m
スパン 9.00 m
形状 Box + pan
製造者 SPXS
バスタイプ Starlink
フェーズステータス In Orbit
所有者/国 SPXS/US

Most Searched